Regional Weather Roundup
Issued by NWS

Home | Current Version | Previous Version | Text Only | Print | Product List | Glossary Off
Versions: 1 2 3 4 5 6 7 8 9 10 11 12 13 14 15 16 17 18 19 20 21 22 23 24 25 26 27 28 29 30 31 32 33 34 35 36 37 38 39 40 41 42 43 44 45 46 47 48 49 50

000
ASUS45 KBOI 241010
RWRID

IDAHO REGIONAL WEATHER ROUNDUP
NATIONAL WEATHER SERVICE BOISE ID
300 AM MST TUE JAN 24 2017

NOTE: "FAIR" INDICATES FEW OR NO CLOUDS BELOW 12000 FEET
WITH NO SIGNIFICANT WEATHER AND/OR OBSTRUCTIONS TO VISIBILITY

IDZ012-014-241100-
SOUTHWEST IDAHO


CITY           SKY/WX    TMP DP  RH WIND       PRES   REMARKS
BOISE          CLOUDY    27  22  81 W10       29.72R WCI  17
CALDWELL       NOT AVBL
MOUNTAIN HOME  MOCLDY    29  29  99 W26G33    29.69S WCI  14
$$

IDZ016-017-241100-
SOUTHCENTRAL IDAHO


CITY           SKY/WX    TMP DP  RH WIND       PRES   REMARKS
BURLEY         MIX PCPN  28  22  78 W15G25    29.65R WCI  16
JEROME         CLOUDY    26  25  96 SW20G29   29.66R WCI  12
TWIN FALLS     FLURRIES  27  21  78 SW20G28   29.67R WCI  13
$$

IDZ019>023-241100-
SOUTHEAST IDAHO


CITY           SKY/WX    TMP DP  RH WIND       PRES   REMARKS
IDAHO FALLS    LGT SNOW  25  23  92 W16       29.60R FOG     WCI  12
POCATELLO      LGT SNOW  24  23  96 SW16      29.65R FOG     WCI  11
REXBURG        LGT SNOW  23  22  96 S13G21    29.55R FOG     WCI  11
$$

IDZ006-010-011-018-031-032-241100-
CENTRAL IDAHO MOUNTAINS


CITY           SKY/WX    TMP DP  RH WIND       PRES   REMARKS
MCCALL         CLOUDY    25  17  72 NW6       29.66R WCI  18
HAILEY         CLOUDY    23  23 100 CALM      29.60R
STANLEY          N/A     14  11  87 CALM      29.60R
SALMON         CLOUDY     9   7  92 S3        29.73R
CHALLIS        CLOUDY    22  16  78 NW8       29.65R WCI  12
$$

IDZ002-004-006-007-026-241100-
NORTHERN IDAHO


CITY           SKY/WX    TMP DP  RH WIND       PRES   REMARKS
LEWISTON       CLOUDY    31  28  89 S5        29.95R WCI  26
LOWELL           N/A     32  28  85 CALM      29.93R
COEUR D`ALENE  CLOUDY    30  29  96 CALM      29.90R FOG
MULLAN PASS    CLOUDY    19  15  84 CALM      29.73R
$$



USA.gov is the U.S. government's official web portal to all federal, state and local government web resources and services.